Regional Weather Roundup
Issued by NWS

Home | Current Version | Previous Version | Graphics & Text | Print | Product List | Glossary On
Versions: 1 2 3 4 5 6 7 8 9 10 11 12 13 14 15 16 17 18 19 20 21 22 23 24 25 26 27 28 29 30 31 32 33 34 35 36 37 38 39 40 41 42 43 44 45 46 47 48 49 50
000
ASUS43 KDMX 201707
RWRIA

WEATHER ROUNDUP FOR IOWA
NATIONAL WEATHER SERVICE DES MOINES IA
1200 PM CDT MON OCT 20 2014

NOTE: "FAIR" INDICATES FEW OR NO CLOUDS BELOW 12,000 FEET WITH NO
SIGNIFICANT WEATHER AND/OR OBSTRUCTIONS TO VISIBILITY.

* - THESE STATIONS ARE NOT NWS STATIONS...THUS NOT UNDER NWS
QUALITY CONTROL.  THEY ALSO DO NOT REPORT WEATHER SUCH
AS PRECIPITATION OR FOG.

IAZ001>003-012>014-020>022-031>034-043>046-201800-
   NORTHWEST IOWA

CITY           SKY/WX    TMP DP  RH WIND       PRES   REMARKS
CARROLL *      SUNNY     66  41  39 NW13      30.06S
CHEROKEE *     SUNNY     63  43  48 NW8       30.08S
DENISON *      SUNNY     64  43  45 NW8G15    30.06S
LE MARS *      SUNNY     64  41  42 N7G15     30.09F
ORANGE CITY *  SUNNY     64  43  45 NW10      30.08F
SHELDON *      SUNNY     63  41  45 NW6G14    30.07F
SIOUX CITY     SUNNY     65  43  44 N6        30.10F
SPENCER        SUNNY     65  42  43 N12       30.06F
STORM LAKE *   SUNNY     64  41  42 NW10G17   30.08S
$$

IAZ055>058-069>071-079>083-090>094-201800-
   SOUTHWEST IOWA

CITY           SKY/WX    TMP DP  RH WIND       PRES   REMARKS
ATLANTIC *     SUNNY     66  43  42 NW8       30.07F
AUDUBON *      SUNNY     66  36  32 NW7       30.08S
CLARINDA *     SUNNY     66  45  45 NE5       30.10S
COUNCIL BLFS * SUNNY     64  45  48 CALM      30.09S
CRESTON *      SUNNY     63  43  48 VRB5      30.08R
HARLAN  *      SUNNY     66  41  39 NW8       30.11F
LAMONI         SUNNY     65  45  48 NE7       30.06S
RED OAK *      SUNNY     64  45  48 E5        30.09S
SHENANDOAH *   SUNNY     66  43  42 N6        30.10S
$$

IAZ047>049-059>061-072>074-084-201800-
   CENTRAL IOWA

CITY           SKY/WX    TMP DP  RH WIND       PRES   REMARKS
AMES           SUNNY     65  41  41 NW10      30.03F
ANKENY *       SUNNY     63  46  55 W9        30.04S
CHARITON *     SUNNY     64  43  45 N7        30.04S
DES MOINES     SUNNY     66  43  43 NW12      30.04F
GRINNELL*      SUNNY     64  43  45 NW10      30.02F
KNOXVILLE *    SUNNY     63  45  51 NW9       30.02F
MARSHALLTOWN   SUNNY     63  44  50 NW13      30.01F
PELLA *        SUNNY     64  48  55 W6        30.04S
PERRY *          N/A     66  41  39 NW7       30.05S
$$

IAZ004>006-015-016-023>025-035-036-201800-
   NORTH CENTRAL IOWA

CITY           SKY/WX    TMP DP  RH WIND       PRES   REMARKS
ALGONA *       SUNNY     64  43  45 N13       30.04F
CLARION *      SUNNY     64  45  48 NW10G17   30.03S
ESTHERVILLE    SUNNY     65  40  39 NW12      30.04F
FORT DODGE *   SUNNY     64  43  45 NW8       30.06S
MASON CITY     SUNNY     63  43  48 N16G22    30.02F
FOREST CITY *  SUNNY     63  43  48 NW13G18   30.02S
IOWA FALLS *     N/A     64  43  45 NW15      30.03F
$$

IAZ007>011-017>019-026>030-037>042-050>054-066-201800-
   NORTHEAST IOWA

CITY           SKY/WX    TMP DP  RH WIND       PRES   REMARKS
CEDAR RAPIDS   SUNNY     62  46  55 NW14      29.98F
CHARLES CITY * SUNNY     61  43  51 NW13      30.00S
CLINTON *      SUNNY     63  43  48 N16G23    29.97S
DECORAH *      SUNNY     61  45  55 NW13      29.96S
DUBUQUE        SUNNY     60  45  57 NW14      29.95S
MONTICELLO *   SUNNY     63  45  51 NW14G21   29.96S
OELWEIN *      SUNNY     61  45  55 NW14G21   29.98F
WATERLOO       SUNNY     63  44  50 NW14      29.99F
$$

IAZ064-065-067-068-078-201800-
   EAST CENTRAL IOWA

CITY           SKY/WX    TMP DP  RH WIND       PRES   REMARKS
DAVENPORT      SUNNY     64  43  46 N18G24    29.96R
IOWA CITY      SUNNY     62  46  55 NW14      30.00S
MT. PLEASANT * SUNNY     63  45  51 N14       30.00S
MUSCATINE *    SUNNY     64  45  48 N16       29.98S
QUAD CITIES    SUNNY     63  44  50 N16G22    29.95R
$$

IAZ062-063-075>077-085>089-095>099-201800-
   SOUTHEAST IOWA

CITY           SKY/WX    TMP DP  RH WIND       PRES   REMARKS
BURLINGTON     SUNNY     65  45  48 N10G23    29.98S
FAIRFIELD *    SUNNY     63  45  51 NW10      30.01S
FORT MADISON * SUNNY     66  46  48 NW9G17    29.99F
KEOKUK *       SUNNY     64  46  52 NW14G20   29.99S
OSKALOOSA *      N/A     63  45  51 NW7       30.03R
CENTERVILLE *  SUNNY     64  45  48 NW7       30.05S
OTTUMWA        SUNNY     64  45  49 NW9       30.02S
WASHINGTON *   SUNNY     63  45  51 N14G21    30.00S
$$

ABBREVIATIONS USED IN REMARKS
   TC - TEMPERATURES IN CELSIUS
  WCI - WIND CHILL INDEX
   HX - HEAT INDEX
  VSB - VISIBILITY
$$



USA.gov is the U.S. government's official web portal to all federal, state and local government web resources and services.